NOAA NWS Hourly Roundups by Site

Regional Weather Roundup for Jackson, KY

To Select Another Site Choose from List

Select Site:  

000
ASUS43 KJKL 181110
RWRJKL

EAST KENTUCKY HOURLY WEATHER ROUNDUP
NATIONAL WEATHER SERVICE JACKSON KY
700 AM EDT SAT SEP 18 2021

NOTE: "FAIR" INDICATES FEW OR NO CLOUDS BELOW 12,000 FEET WITH
NO SIGNIFICANT WEATHER AND/OR OBSTRUCTIONS TO VISIBILITY.

* THESE REPORTS ARE NOT UNDER NWS QUALITY CONTROL AND MAY NOT
  REPORT WEATHER SUCH AS PRECIPITATION AND FOG.

KYZ079-080-083-085-087-088-110-112-115-119-120-181200
...EASTERN KENTUCKY...

CITY           SKY/WX    TMP DP  RH WIND       PRES   REMARKS
JACKSON        FOG       67  65  93 CALM      30.17S VSB 1/4
LONDON         CLOUDY    68  67  96 CALM      30.17R
SOMERSET*      CLOUDY    70  63  78 CALM      30.17R
MONTICELLO*    TSTM      72  72 100 CALM      30.18R
WILLIAMSBURG*  CLOUDY    66  66 100 CALM      30.17S
MIDDLESBORO*   CLOUDY    67  67 100 CALM      30.18S
HARLAN APT*    CLOUDY    65  65 100 CALM      30.19S
PIKE CO APT*   FOG       67  67 100 SE3       30.19R VSB 1
BIG SANDY APT* MOSUNNY   66  66 100 CALM      30.18R FOG
MOREHEAD APT*  CLOUDY    66  64  94 CALM      30.18R
ASHLAND*       FOG       68  68 100 CALM      30.15S VSB 1/2
$$

KYZ035-036-041-042-044-050-067-078-099-181200
...CENTRAL KENTUCKY...

CITY           SKY/WX    TMP DP  RH WIND       PRES   REMARKS
MT STERLING*   MOCLDY    64  64 100 CALM      30.18S
FLEMING/MASON* PTCLDY    65  65 100 SW3       30.18R FOG
DANVILLE*      CLOUDY    66  64  94 CALM      30.17R
RICHMOND*      PTSUNNY   66  66 100 CALM      30.15S
LEXINGTON      PTCLDY    66  65  96 CALM      30.15S
FRANKFORT      PTCLDY    69  67  93 CALM      30.14S
LOUISVILLE     PTCLDY    73  70  90 SE3       30.13R
LEBANON*         N/A     68  68 100 CALM      30.16R
GLASGOW*       CLOUDY    69  69 100 CALM      30.13S
BOWLING GREEN  CLOUDY    71  68  90 N6        30.13R
$$

KYZ091>093-OHZ055-061-077-WVZ005-015-034-035-042-181200
...SOUTHERN OHIO/WEST VIRGINIA...

CITY           SKY/WX    TMP DP  RH WIND       PRES   REMARKS
COVINGTON      CLEAR     67  65  93 SW3       30.15R
COLUMBUS       PTCLDY    66  65  96 CALM      30.14R
DAYTON         PTCLDY    68  63  84 CALM      30.16S
WILMINGTON     FOG       63  63 100 CALM      30.15S VSB 3/4
HUNTINGTON     CLOUDY    65  64  97 CALM      30.15R FOG
CHARLESTON     FOG       65  65 100 CALM      30.16R VSB 1
PINEVILLE*     CLOUDY    67  66  95 MISG      30.24R
BECKLEY        PTCLDY    62  62 100 CALM      30.23R
BLUEFIELD      MOCLDY    62  61  96 SW5       30.25R
LOGAN CO APT*  FOG       66  66 100 CALM      30.19R VSB<1/4
$$

VAZ002-007-008-TNZ017-027-036-066-071-181200
...SOUTHWEST VIRGINIA/EAST TENNESSEE...

CITY           SKY/WX    TMP DP  RH WIND       PRES   REMARKS
WISE*          PTCLDY    63  63 100 CALM      30.25R
JONESVILLE*    PTSUNNY   64  64 100 CALM      30.19S
ABINGDON*      PTCLDY    65  63  93 CALM      30.22S
BRISTOL        PTCLDY    64  63  96 CALM      30.19S
MORRISTOWN*    CLOUDY    70  70 100 CALM      30.16S
SEVIERVILLE*   CLOUDY    70  70 100 CALM      30.15S
KNOXVILLE      MOCLDY    70  69  97 CALM      30.14S
LAFOLLETTE*    CLOUDY    70  68  94 CALM      30.21R
OAK RIDGE      MOCLDY    70  68  93 CALM      30.16S
CROSSVILLE     LGT RAIN  68  68 100 CALM      30.19S FOG
NASHVILLE      CLOUDY    72  68  87 N3        30.12S
$$

...KEY TO REMARKS...
VSB - VISIBILITY IN MILES
WCI - WIND CHILL INDEX
HX  - HEAT INDEX

$$


 

View Past Reports for Jackson, KY.

Products Courtesy of NOAA-NWS
NWS Information Parsing Script by Ken True at Saratoga Weather - Script by SE Lincoln Weather.